Theta_e
320 322 324 322 323 322 321 322 323 322 322 322 323 323 323 322 323 323 324 325 325 325 324 324 325 323 323 327 329 327 324 324 327 327 325 322 321 318 316 316 316 316 316 316
320 322 319 319 320 322 323 323 323 321 320 321 321 322 321 321 322 322 323 323 324 324 324 323 323 325 323 325 324 324 327 323 325 327 326 324 322 321 321 318 316 316 316 317
320 318 317 318 319 320 320 321 321 322 320 320 320 322 321 320 320 320 321 321 322 322 323 322 322 323 324 323 326 323 320 320 324 325 326 326 326 325 325 323 321 317 316 316
319 318 319 320 320 319 321 319 319 319 320 321 318 321 319 319 319 319 319 320 320 322 322 322 323 323 323 323 324 326 325 322 320 323 327 326 324 322 319 319 320 321 319 317
318 318 319 321 320 319 320 318 318 319 321 320 319 321 319 320 320 320 320 319 319 320 321 321 322 323 324 324 323 323 326 326 323 321 322 324 326 325 324 323 321 321 320 321
316 316 318 318 317 318 318 319 319 320 321 323 320 320 320 319 321 322 321 321 321 320 321 322 322 323 324 324 324 323 324 326 327 325 322 323 322 323 326 325 324 322 322 321
315 316 315 317 318 318 318 319 322 323 322 324 319 322 321 321 321 321 321 321 321 321 321 320 320 319 320 322 322 322 323 325 327 328 326 323 322 321 321 322 324 325 324 323
315 314 315 316 316 318 319 319 321 320 324 321 320 323 323 321 320 320 321 320 320 320 316 313 312 311 311 312 318 321 320 322 326 328 328 326 324 323 321 321 321 322 324 323
313 312 314 313 316 316 318 320 318 319 319 321 322 321 320 320 320 320 319 319 317 316 315 312 313 315 316 314 310 316 318 318 320 325 328 328 327 325 324 324 323 324 322 323
315 314 314 313 314 316 317 317 320 319 320 321 317 319 320 320 320 319 320 318 315 314 315 315 314 313 316 316 315 311 312 312 316 318 323 328 323 325 325 325 325 325 325 324
315 315 317 315 316 316 316 318 318 319 320 320 319 318 317 317 318 318 318 316 314 313 315 316 315 315 315 316 317 317 312 314 313 315 317 323 319 321 324 325 325 325 325 326
315 315 317 315 315 315 316 316 317 319 316 318 318 318 316 317 318 317 316 315 315 316 317 316 315 315 316 315 316 317 315 309 314 314 314 315 315 316 321 323 324 325 326 327
314 314 315 315 314 314 317 317 316 317 317 319 318 316 316 316 317 317 317 317 317 317 317 316 316 315 315 315 315 316 315 311 308 314 313 314 317 316 318 320 323 326 327 327
313 314 313 314 314 314 315 315 316 317 318 318 319 318 316 317 318 318 317 317 317 317 316 316 316 316 315 315 314 315 316 315 309 308 313 314 316 315 314 320 323 324 325 326
313 313 313 312 311 313 316 316 317 318 318 318 317 317 317 317 317 317 317 317 316 315 315 315 315 314 314 314 313 314 315 314 308 308 308 313 312 311 314 320 322 323 324 325
312 313 313 312 312 311 314 316 316 316 317 317 317 318 318 317 316 316 316 315 315 314 314 313 310 309 311 313 312 313 314 310 308 309 308 309 311 312 311 318 320 322 325 325
312 311 313 314 312 313 313 313 313 315 316 316 318 318 317 316 316 315 315 314 312 309 306 305 305 305 306 309 311 312 314 312 308 308 308 308 310 312 311 314 318 321 322 324
311 311 311 313 312 314 312 311 312 312 313 315 316 316 316 314 314 313 310 306 306 305 304 303 303 305 306 308 310 311 313 311 307 308 308 308 310 311 313 315 317 319 321 322
311 312 313 312 313 312 311 308 310 313 314 313 313 314 313 309 310 310 306 304 303 302 303 303 303 304 305 307 309 312 312 310 307 307 307 307 307 310 313 315 316 318 320 321
307 311 312 310 311 312 310 308 309 311 313 308 310 308 307 308 311 311 305 303 302 301 302 304 304 304 305 306 307 308 308 308 306 306 307 308 307 307 308 309 310 310 311 312
309 309 311 312 312 310 307 307 308 309 308 305 305 305 305 307 305 302 300 299 299 298 301 303 304 303 303 305 305 306 306 304 305 305 306 307 308 308 308 308 308 308 308 308
310 311 311 312 311 310 305 304 308 306 302 302 301 301 299 299 297 298 301 300 296 298 301 303 304 304 303 303 303 304 304 305 304 304 304 305 306 308 308 308 308 309 309 309
309 309 309 309 308 303 302 303 300 300 302 297 298 295 294 294 295 294 298 301 301 300 301 302 302 304 302 301 301 302 302 302 303 303 303 303 304 305 307 307 308 308 309 309
302 303 304 304 305 303 301 298 299 297 296 295 295 294 293 292 292 293 296 297 299 299 300 300 301 302 303 301 300 300 300 301 302 302 302 302 302 303 304 306 307 307 307 307
303 301 304 304 303 300 298 297 295 295 295 294 293 293 292 292 292 292 293 294 295 296 297 298 298 298 300 300 299 299 300 300 300 301 301 301 301 301 302 303 304 305 305 305
302 303 303 303 302 303 298 293 294 294 292 291 291 290 289 290 290 291 292 293 293 294 295 297 297 297 298 299 300 300 299 299 299 300 300 300 300 300 300 301 302 303 303 303
Wind_Speed
16 10 16 18 19 18 16 17 16 13 6 10 17 21 20 27 30 30 30 30 31 30 29 25 26 25 27 28 28 33 34 34 37 38 40 42 44 41 38 37 35 35 34 33
9 21 17 16 17 21 20 19 19 14 7 10 19 25 23 25 31 33 32 34 33 32 31 27 26 27 29 30 34 35 34 36 39 41 40 41 42 42 40 41 40 40 39 38
17 4 23 16 18 18 18 19 16 15 12 15 17 28 26 27 38 37 37 39 39 38 37 37 32 31 32 33 37 39 40 39 41 41 40 41 40 41 43 45 45 45 42 42
16 21 14 18 21 17 19 16 15 13 9 9 4 11 20 20 23 23 26 27 30 30 32 32 29 29 31 35 36 41 45 43 44 42 43 45 47 47 47 45 45 45 45 46
12 16 16 18 17 15 12 10 11 12 14 15 18 10 6 7 14 14 15 20 24 25 24 26 26 26 29 29 35 41 45 49 47 46 47 47 49 49 48 46 46 45 44 46
22 6 14 22 13 13 5 10 10 9 3 7 15 13 11 11 7 5 8 19 18 19 17 15 19 20 21 24 28 37 41 44 48 50 49 50 51 50 49 50 50 48 47 46
19 17 8 9 18 18 15 10 3 5 4 8 10 13 19 7 10 17 18 16 16 15 15 16 19 17 17 20 25 28 38 42 42 47 52 52 52 51 51 50 52 52 50 51
16 12 26 14 19 9 20 14 5 8 6 6 11 12 12 5 11 13 13 12 14 10 7 7 10 15 17 18 21 25 26 37 38 41 50 52 51 50 51 51 52 53 54 52
18 17 3 18 15 18 14 17 18 12 1 3 7 18 18 16 17 23 18 11 1 3 6 8 14 23 27 28 19 20 24 28 32 39 43 49 52 53 52 51 51 52 52 52
9 12 11 20 16 22 17 11 3 4 6 9 14 19 14 6 10 12 7 13 2 7 8 14 18 22 29 22 25 21 23 30 32 35 39 46 43 48 52 51 52 52 52 50
7 9 7 14 15 19 15 17 8 6 6 5 5 9 6 10 8 2 6 3 8 8 16 22 21 25 27 26 24 26 24 22 30 33 33 43 34 39 45 49 51 52 52 49
22 1 7 13 1 16 20 25 23 9 9 5 9 17 4 4 1 6 6 5 9 14 20 24 25 31 25 27 27 24 25 25 22 24 30 37 32 35 42 46 47 47 48 49
17 6 5 4 7 7 12 20 21 23 14 14 8 13 3 14 13 7 10 17 21 21 27 28 27 28 29 29 28 22 21 26 21 19 24 29 30 31 38 41 41 42 44 44
21 10 14 13 2 4 9 24 23 21 13 23 16 27 21 10 12 18 24 20 26 28 26 26 28 30 32 33 31 24 22 28 28 23 23 25 29 35 36 38 37 36 41 41
12 9 15 20 18 7 11 8 18 25 26 15 25 25 24 21 19 19 24 25 24 26 27 26 29 31 32 33 32 27 24 24 28 27 27 27 25 28 32 35 34 33 36 38
15 3 7 10 18 19 11 12 16 20 20 19 26 24 26 26 31 23 18 24 23 27 26 25 29 30 31 30 33 29 25 24 25 26 27 26 24 28 30 32 33 30 32 33
15 6 5 7 8 7 5 24 22 21 22 23 21 30 19 17 13 21 20 21 19 18 23 25 27 30 30 28 30 27 26 26 25 24 24 22 22 27 28 27 29 28 27 28
11 8 2 1 5 7 10 4 16 23 23 21 22 27 18 20 21 22 9 8 13 19 23 26 30 32 27 24 23 25 21 22 23 21 21 19 18 19 20 21 23 24 25 25
13 11 4 5 10 10 12 8 6 10 14 18 23 20 15 11 13 3 7 13 14 18 23 27 29 30 28 25 23 20 21 21 19 18 17 21 16 15 18 20 21 23 25 25
2 13 8 4 8 10 5 3 5 7 8 6 8 8 2 6 4 7 17 19 19 21 23 27 29 29 29 27 24 22 17 17 18 19 18 19 14 12 15 14 17 17 18 19
6 7 16 13 7 6 2 7 10 7 2 10 9 5 0 1 5 15 17 19 18 20 24 24 26 28 28 28 26 22 20 17 16 18 19 18 14 13 12 14 16 14 14 15
12 9 6 6 9 15 9 6 7 6 8 8 5 3 3 7 10 14 20 21 20 24 26 27 26 26 27 27 26 23 21 20 18 19 19 18 20 14 14 14 15 15 15 16
7 6 5 9 5 3 6 2 6 8 9 6 5 4 5 8 8 12 19 23 26 29 30 29 29 26 24 24 24 24 22 21 20 18 18 18 17 19 16 15 18 18 17 15
6 5 2 2 6 5 7 6 8 7 7 5 4 4 6 9 11 14 18 21 24 27 30 31 31 30 27 24 22 22 22 21 21 21 19 17 17 17 19 18 18 18 18 18
2 11 6 4 2 1 4 7 10 8 5 4 5 6 8 10 13 15 18 20 21 24 26 28 30 30 28 26 22 21 20 22 22 20 18 19 16 16 19 20 21 23 21 20
8 5 6 5 4 4 4 13 12 8 6 6 7 8 10 12 14 16 19 20 22 24 25 26 26 28 28 26 25 23 21 20 21 23 19 17 17 17 16 18 20 19 20 21
Wind_Direction
199 210 213 207 220 233 253 245 253 252 244 292 270 273 274 273 267 266 264 264 265 266 265 263 257 250 245 232 227 226 227 230 226 225 227 230 235 236 237 235 232 236 236 235
193 229 218 221 226 235 242 252 250 256 275 276 278 274 270 268 269 265 266 268 269 269 265 263 259 251 244 239 236 233 227 231 230 229 233 236 241 242 242 240 236 234 236 237
207 233 217 226 227 225 234 239 245 262 290 275 287 284 263 254 257 260 259 263 264 264 266 268 264 253 245 238 238 239 239 237 235 232 231 232 235 242 242 240 238 236 236 239
226 224 187 215 225 221 240 240 256 262 273 258 260 288 288 289 275 272 271 263 261 258 259 265 266 260 252 246 241 242 248 244 240 236 230 232 234 237 242 243 244 241 239 240
210 207 208 212 207 209 233 249 242 247 253 267 258 271 281 270 281 273 261 267 261 262 262 269 266 269 264 253 250 243 245 246 243 240 235 234 235 239 243 243 244 244 242 242
230 192 225 227 221 224 208 241 258 258 310 240 234 227 281 258 271 313 275 268 275 268 272 287 282 277 272 260 255 244 244 244 244 242 241 236 239 239 237 243 245 246 245 245
223 220 221 229 222 218 220 211 207 221 212 244 211 208 244 285 267 291 272 290 302 288 292 289 292 295 287 271 266 258 247 243 236 240 242 243 242 242 243 245 247 247 246 244
207 214 221 198 222 190 207 189 209 215 210 249 192 232 244 238 253 269 272 295 304 300 306 330 343 2 345 303 267 258 258 248 238 232 242 246 244 244 245 245 247 249 250 252
200 221 219 202 205 202 194 220 235 273 297 278 226 249 262 254 246 267 261 263 223 9 2 12 7 359 359 357 326 270 268 261 252 240 239 243 246 246 247 250 250 249 251 252
201 226 183 194 211 225 232 156 149 206 224 232 241 246 246 190 225 265 247 196 287 317 316 340 341 338 346 350 354 336 291 274 258 253 239 239 249 252 252 253 253 249 249 249
214 234 167 163 208 205 209 225 228 212 222 228 250 240 259 282 272 239 347 155 330 353 334 334 332 331 331 332 332 339 329 295 263 248 244 240 248 252 255 254 255 254 249 245
204 279 213 205 122 217 218 221 215 217 214 264 278 269 291 285 220 335 315 359 332 320 327 330 326 330 320 325 331 325 322 315 293 257 245 248 250 252 251 251 251 248 243 243
192 210 190 249 278 233 236 228 228 233 251 236 216 260 264 234 258 277 312 324 324 322 324 320 317 318 319 318 321 321 320 314 296 282 265 257 270 260 254 251 248 243 239 240
180 196 211 222 129 131 215 232 227 227 225 236 225 258 252 245 289 310 313 321 317 317 320 320 319 317 315 315 314 308 309 310 304 287 264 271 263 267 261 253 248 244 241 242
191 221 220 236 255 265 247 229 239 220 227 226 238 244 260 266 279 292 317 309 313 320 319 322 321 321 318 317 323 307 305 303 299 284 274 264 270 268 258 249 246 244 241 239
202 226 213 243 245 248 242 251 230 227 237 245 262 267 263 278 292 295 299 309 320 319 321 326 323 324 322 321 325 315 313 312 298 288 277 270 261 271 264 253 248 242 240 240
189 162 157 228 200 240 274 241 243 241 225 226 233 244 272 274 293 294 315 318 324 328 326 327 325 322 321 310 319 312 306 312 306 297 285 273 264 253 261 258 253 247 246 246
183 169 131 235 138 216 239 239 235 235 235 239 251 260 278 287 302 298 329 3 334 327 329 332 336 336 332 324 324 315 302 308 307 299 288 274 270 264 248 235 246 250 245 243
190 184 183 218 215 281 290 211 190 190 247 240 246 264 285 309 289 166 31 356 345 334 334 336 343 346 342 330 323 324 314 308 304 302 291 276 264 261 247 241 234 238 239 240
209 202 205 158 226 233 312 147 151 151 261 144 132 120 147 304 265 115 346 340 333 333 336 344 349 351 349 346 335 323 316 307 301 299 294 282 270 253 256 244 242 238 243 246
171 181 209 213 240 264 242 125 160 175 192 128 125 127 105 320 12 304 323 325 326 326 329 341 349 353 353 350 345 334 320 312 300 294 292 287 276 266 250 244 241 237 238 243
187 174 191 196 209 243 157 151 214 110 108 133 127 144 288 298 311 310 319 325 329 332 336 336 341 348 350 349 345 342 333 319 303 292 287 284 284 268 268 266 264 262 252 244
204 203 194 202 218 99 163 100 155 133 146 156 165 220 279 295 306 307 319 326 329 332 333 335 336 339 343 344 343 340 338 328 316 303 293 289 283 281 266 264 268 264 258 253
218 190 230 123 202 202 171 177 174 158 155 181 219 264 292 299 308 320 327 329 327 326 327 329 331 329 332 336 337 335 334 330 323 317 306 294 286 276 273 252 249 255 254 250
142 148 166 256 219 128 195 197 190 190 203 240 277 290 303 310 315 318 322 326 328 326 326 326 328 328 329 328 330 330 330 329 324 317 313 304 291 280 272 262 257 248 239 242
181 164 184 220 163 255 107 187 200 204 218 256 280 290 299 307 306 310 314 317 319 321 322 321 322 324 326 327 324 325 328 328 324 318 314 308 297 286 275 266 256 247 242 242